#timestamp,LO_Frequency,Hit,StdDev 
1549378815.6,286046998.5,N
1549378835.5,286047000.9,N
1549378855.3,286047000.6,N
1549378875.2,286046999.3,N
1549378895.9,286046996.9,N
1549378915.7,286047000.7,N
1549378935.6,286046998.5,N
1549378955.4,286046997.0,N
1549378975.3,286046996.6,N
1549378995.1,286046998.6,N
1549378996.0,286046998.6,N
1549379015.8,286046996.7,N
1549379035.7,286046999.4,N
1549379055.5,286046999.3,N
1549379075.3,286046997.0,N
1549379095.2,286046996.6,N
1549379115.0,286046996.9,N
1549379115.9,286046996.9,N
1549379135.8,286046998.0,N
1549379155.6,286046995.3,N
1549379175.4,286046994.9,N
1549379195.3,286046994.9,N
1549379215.1,286046996.8,N
1549379235.9,286046997.5,N
1549379255.7,286046999.5,N
1549379275.5,286046999.6,N
1549379295.4,286046997.3,N
1549379315.2,286046996.9,N
1549379335.0,286047000.7,N
1549379335.9,286047000.7,N
1549379355.8,286047002.8,N
1549379375.6,286047002.0,N
1549379395.5,286047001.9,N
1549379415.3,286047003.0,N
1549379435.1,286047005.9,N
1549379455.9,286047001.3,N
1549379475.7,286047002.3,N
1549379495.5,286047000.6,N
1549379515.4,286046998.3,N
1549379535.2,286046999.3,N
1549379555.1,286046999.6,N
1549379556.0,286046999.6,N
1549379575.8,286046998.4,N
1549379595.6,286046997.8,N
1549379615.5,286046995.2,N
1549379635.3,286046996.2,N
1549379655.2,286046996.0,N
1549379675.9,286046993.5,N
1549379695.7,286046996.4,N
1549379715.6,286046995.6,N
1549379735.4,286046993.4,N
1549379755.2,286046995.9,N
1549379775.1,286046996.0,N
1549379776.0,286046996.0,N
1549379795.8,286046993.7,N
1549379815.7,286046991.9,N
1549379835.5,286046991.1,N
1549379855.3,286046993.1,N
1549379875.2,286046992.5,N
1549379895.0,286046992.9,N
1549379895.9,286046992.9,N
1549379915.8,286046992.4,N
1549379935.6,286046992.1,N
1549379955.4,286046991.8,N
1549379975.3,286046991.4,N
1549379995.1,286046990.7,N
1549380015.9,286046988.6,Y
1549380035.7,286046996.4,P
1549380055.5,286046998.0,P
1549380075.4,286046997.2,N
1549380095.2,286046997.3,N
1549380115.0,286046997.7,N
1549380115.9,286046997.7,N
1549380135.8,286046996.8,Y
1549380155.6,286047000.9,P
1549380175.5,286046998.5,N
1549380195.3,286046998.7,N
1549380215.1,286046997.1,N
1549380235.9,286047000.9,N
1549380255.7,286047000.9,N
1549380275.5,286046999.8,N
1549380295.4,286047002.5,N
1549380315.2,286047001.7,N
1549380335.1,286047000.4,N
1549380336.0,286047000.4,N
1549380355.8,286047000.2,N
1549380375.6,286047002.7,N
1549380395.5,286047000.3,N
1549380415.3,286047002.7,N
1549380435.1,286047002.1,N
1549380455.9,286047003.8,N
1549380475.7,286047004.4,N
1549380495.6,286047001.3,N
1549380515.4,286047004.2,N
1549380535.2,286047004.4,N
1549380555.1,286047003.7,N
1549380556.0,286047003.7,N
1549380575.8,286047001.7,N
1549380595.6,286047004.3,N
1549380615.5,286047005.5,N
1549380635.3,286047003.7,N
1549380655.2,286047003.8,N
1549380675.9,286047006.6,N
1549380695.7,286047004.5,N
1549380715.6,286047005.1,N
1549380735.4,286047004.7,N
1549380755.2,286047005.2,N
1549380775.1,286047007.6,Y
1549380776.0,286047007.6,P
1549380795.8,286047006.0,N
1549380815.7,286047005.8,N
1549380835.5,286047003.4,N
1549380855.3,286047003.5,N
1549380875.2,286047005.3,Y
1549380895.0,286047001.2,P
1549380895.9,286047001.2,N
1549380915.8,286047002.1,N
1549380935.6,286047000.1,N
1549380955.4,286046998.1,N
1549380975.3,286047000.7,N
1549380995.1,286047000.0,N
1549381015.8,286047000.3,N
1549381035.7,286047000.6,N
1549381055.5,286046998.1,N
1549381075.4,286047001.2,N
1549381095.2,286047002.8,N
1549381115.0,286046999.8,N
1549381115.9,286046999.8,N
1549381135.8,286046999.8,N
1549381155.6,286047000.0,N
1549381175.4,286047002.8,N
1549381195.3,286047002.4,N
1549381215.1,286046999.8,N
1549381235.9,286047001.6,N
1549381255.7,286047001.3,N
1549381275.5,286047001.4,N
1549381295.4,286047002.1,N
1549381315.2,286047002.2,N
1549381335.1,286047001.8,N
1549381336.0,286047001.8,N
1549381355.8,286047001.7,N
1549381375.6,286046999.7,N
1549381395.5,286047000.0,N
1549381415.3,286047001.6,N
1549381435.1,286047004.3,Y
1549381455.9,286047003.9,P
1549381475.7,286047004.1,N
1549381495.6,286047005.6,P
1549381515.4,286047004.9,N
1549381535.2,286047005.7,Y
1549381555.1,286047000.4,P
1549381556.0,286047000.4,N
1549381575.8,286047000.1,N
1549381595.7,286047001.2,N
1549381615.5,286047000.8,N
1549381635.3,286046998.3,N
1549381655.2,286046998.1,N
1549381675.0,286047001.1,N
1549381675.9,286047001.1,N
1549381695.8,286047001.0,N
1549381715.6,286047000.3,N
1549381735.4,286047001.2,N
1549381755.3,286047001.0,N
1549381775.1,286046998.2,N
1549381795.8,286046998.4,N
1549381815.7,286046998.7,N
1549381835.5,286046998.8,N
1549381855.4,286047000.4,N
1549381875.2,286047000.9,N
1549381895.0,286047000.5,N
1549381895.9,286047000.5,N
1549381915.8,286046998.8,N
1549381935.6,286046998.8,N
1549381955.4,286046998.3,N
1549381975.3,286047001.1,N
1549381995.1,286047000.6,N
1549382015.9,286047000.9,N
1549382035.7,286047002.3,N
1549382055.5,286046999.7,N
1549382075.4,286046999.8,N
1549382095.2,286047000.2,N
1549382115.0,286047000.4,N
1549382115.9,286047000.4,N
1549382135.8,286047002.5,N
1549382155.6,286047002.1,N
1549382175.5,286047000.1,N
1549382195.3,286046999.9,N
1549382215.1,286047002.7,N
1549382235.9,286047002.4,N
1549382255.7,286047000.4,N
1549382275.5,286046999.7,N
1549382295.4,286046999.7,N
1549382315.2,286047002.8,N
1549382335.1,286047000.2,N
1549382336.0,286047000.2,N
1549382355.8,286047000.9,N
1549382375.6,286047000.9,N
1549382395.5,286047000.6,N
